Estación Meteorológica Peña el Pijo (Robertgarden) [ 09/30/20 11:22:56 CEST ]

Fecha Hora Presion(HPa) Temp (°C) Humedad % Rocio (°C) Viento ( m/s) Direccion Lluvia 1Hora(mm) Lluvia 24H(mm) LLuvia Total(mm)
2020-Mar-08 01:09:05 1014.200 - - - - N     39.88
2020-Mar-08 02:09:42 1014.100 - - - - N     39.88
2020-Mar-08 03:09:53 1013.800 - - - - N     39.88
2020-Mar-08 04:11:20 1013.400 - - - - N     39.88
2020-Mar-08 05:09:41 1012.800 - - - - N     39.88
2020-Mar-08 06:09:05 1013.300 - - - - N     39.88
2020-Mar-08 07:09:37 1013.500 - - - - N     39.88
2020-Mar-08 08:09:33 1014.100 - - - - N     39.88
2020-Mar-08 09:09:07 1014.200 - - - - N     39.88
2020-Mar-08 10:09:16 1014.100 - - - - N     39.88
2020-Mar-08 11:09:15 1014.200 - - - - N     39.88
2020-Mar-08 12:09:33 1013.800 - - - - N     39.88
2020-Mar-08 13:08:55 1013.900 - - - - N     39.88
2020-Mar-08 14:08:50 1013.000 - - - - N     39.88
2020-Mar-08 15:08:54 1012.300 - - - - N     39.88
2020-Mar-08 16:09:30 1012.400 - - - - N     39.88
2020-Mar-08 17:09:05 1012.100 - - - - N     39.88
2020-Mar-08 18:09:04 1012.500 - - - - N     39.88
2020-Mar-08 19:09:01 1013.200 - - - - N     39.88
2020-Mar-08 20:09:11 1013.800 - - - - N     39.88
2020-Mar-08 21:09:04 1013.700 - - - - N     39.88
2020-Mar-08 22:09:22 1013.600 - - - - N     39.88
2020-Mar-08 23:09:37 1013.400 - - - - N     39.88

Temperatura Máxima:    Temperatura Mínima:
Presión Máxima:1014.200 Hpa    Presión Mínima:1012.100 Hpa


Volver